Regional Weather Roundup
Issued by NWS Kansas City/Pleasant Hill, MO

Home | Current Version | Previous Version | Graphics & Text | Print | Product List | Glossary Off
Versions: 1 2 3 4 5 6 7 8 9 10 11 12 13 14 15 16 17 18 19 20 21 22 23 24 25 26 27 28

000
ASUS43 KEAX 250410
RWREAX

WEATHER ROUNDUP FOR EASTERN KANSAS AND NORTHWEST MISSOURI
NATIONAL WEATHER SERVICE KANSAS CITY/PLEASANT HILL MO
1100 PM CDT MON APR 24 2017

KSZ040-057-103>105-MOZ028-029-037-043-250500-
...KANSAS CITY METROPOLITAN AREA...

CITY           SKY/WX    TMP DP  RH WIND       PRES   REMARKS
K.C. INTL      PTCLDY    62  44  51 S13       29.60S
K.C. DOWNTOWN  CLEAR     67  42  40 S12       29.59F
LEES SUMMIT    CLOUDY    66  42  41 S10       29.62F
OLATHE - IXD   CLOUDY    63  44  50 S10       29.61F
OLATHE - OJC   PTCLDY    60  45  57 S7        29.61F
LAWRENCE       PTCLDY    62  47  57 SE8       29.58F

$$

MOZ001>008-011>017-020>025-030>033-038>040-044>046-053-054-250500-
...NORTHERN AND CENTRAL MISSOURI...

CITY           SKY/WX    TMP DP  RH WIND       PRES   REMARKS
ST. JOSEPH     CLEAR     63  45  51 S10       29.58F
MOSBY          CLEAR     63  37  39 S3        29.61F
WHITEMAN AFB   PTCLDY    59  37  43 S7        29.63F
CLINTON        PTCLDY    59  39  47 S7        29.65F
SEDALIA        PTCLDY    58  38  47 S9        29.67S
WARSAW         NOT AVBL
CHILLICOTHE      N/A     56  40  55 CALM      29.63F
KIRKSVILLE     CLEAR     54  32  43 SE10      29.65S

$$

MOZ041-047>049-056>058-063>065-088>090-097-250500-
...EASTERN AND SOUTHERN MISSOURI...

CITY           SKY/WX    TMP DP  RH WIND       PRES   REMARKS
ST. LOUIS INTL CLEAR     67  37  33 SE9       29.72S
SPIRIT OF STL  CLEAR     58  42  55 CALM      29.71R
COLUMBIA       CLEAR     58  36  43 S7        29.68S
JEFFERSON CITY CLOUDY    62  39  42 CALM      29.69R
ROLLA          CLEAR     63  36  36 S15       29.70R
OSAGE BEACH    CLEAR     61  39  44 S6        29.70R
SPRINGFIELD    CLEAR     58  39  49 S8        29.70R
BRANSON        PTCLDY    55  37  50 CALM      29.72
JOPLIN         CLOUDY    59  44  57 SE6       29.67S
WEST PLAINS    CLEAR     60  43  53 S8        29.75R

$$

IAZ060-094-KSZ022-034>040-054-083-096-NEZ052-066-093-250500-
...KANSAS...SOUTHEAST NEBRASKA AND IOWA...

CITY           SKY/WX    TMP DP  RH WIND       PRES   REMARKS
TOPEKA         PTCLDY    64  47  53 S10       29.56F
MANHATTAN      CLOUDY    67  48  50 S10G21    29.53S
EMPORIA        CLOUDY    62  49  62 S15       29.58S
CHANUTE        CLOUDY    61  47  59 S12       29.61F
WICHITA        CLOUDY    64  50  60 SE12      29.54F
OMAHA          CLOUDY    62  44  51 S9        29.52F
LINCOLN        CLEAR     62  48  60 NW7       29.53R
FALLS CITY     CLEAR     57  45  64 SE8       29.55S
LAMONI         CLOUDY    62  36  37 S6        29.60F
DES MOINES     CLOUDY    64  35  34 S8        29.59F

$$





USA.gov is the U.S. government's official web portal to all federal, state and local government web resources and services.